Temp
14 14 15 15 15 15 15 14 14 15 14 14 14 13 13 12 12 12 12 12 12 13 12 13 13 13 13 13 13 13 13 13 13
14 14 14 15 15 15 14 14 14 14 14 13 13 13 12 12 12 13 12 12 13 13 12 13 13 13 13 13 13 13 13 13 13
14 14 14 14 14 14 14 14 14 13 13 13 13 13 13 12 12 12 12 12 12 12 13 13 13 13 13 13 13 13 13 13 13
14 14 14 14 14 14 14 14 13 13 13 13 13 12 12 12 12 12 12 12 12 13 12 12 12 12 12 12 13 13 13 13 13
14 14 14 14 14 14 14 13 13 13 13 13 12 12 12 12 12 12 12 12 12 12 12 12 12 12 12 12 12 13 13 13 13
14 14 14 14 14 14 13 13 13 13 12 12 12 12 12 12 12 12 12 12 12 11 12 12 12 11 12 11 12 12 12 12 12
14 14 14 14 14 13 13 13 13 12 12 12 12 12 12 12 12 12 12 12 11 10 11 11 11 10 10 11 11 11 11 11 11
13 13 13 13 13 13 13 13 12 12 12 12 12 13 12 12 12 12 12 11 10 10 11 11 10 10 10 10 10 10 10 10 10
13 13 13 13 13 13 12 12 12 12 12 13 13 13 12 13 12 12 11 11 10 10 10 10 10 10 9 10 10 10 10 10 10
14 13 13 13 13 12 12 12 12 12 12 13 13 12 12 12 12 11 11 10 10 10 9 9 9 9 9 9 9 9 10 10 10
14 13 13 13 12 12 12 12 12 12 13 13 13 12 12 12 12 11 10 10 10 9 9 9 9 9 9 9 9 9 9 9 9
13 13 13 12 13 12 12 12 12 12 13 13 13 12 12 11 11 10 10 10 9 9 9 9 9 9 9 8 8 8 8 8 8
13 13 13 13 13 12 12 12 12 13 13 12 12 12 11 10 10 10 10 9 9 8 9 8 8 8 8 8 8 8 8 8 8
13 13 13 13 13 13 12 12 12 12 12 12 12 12 11 11 10 9 9 8 8 8 8 7 8 8 7 7 7 7 7 7 7
13 13 13 13 13 13 12 12 12 12 12 12 12 11 11 10 9 9 9 8 8 8 7 7 7 6 6 6 6 6 6 6 6
14 13 13 13 13 12 12 12 12 12 12 11 11 11 10 10 9 9 8 8 7 6 6 6 5 5 6 5 5 5 5 5 4
14 13 13 13 12 12 12 13 12 12 11 11 11 10 9 9 9 8 7 7 6 6 5 4 5 5 5 4 4 4 4 4 3
14 13 13 12 12 12 12 12 12 11 11 11 10 10 9 9 8 7 6 6 6 5 5 4 4 4 4 3 3 3 2 2 -0
13 12 13 12 12 11 12 12 12 11 11 10 10 9 9 8 8 7 6 6 5 5 5 4 4 3 2 2 2 1 1 0 -1
13 12 11 12 11 11 11 11 11 11 10 10 9 9 8 7 7 7 7 6 6 5 5 4 3 2 2 1 0 -0 -1 -1 -1
Height
1537 1537 1537 1538 1540 1540 1542 1543 1544 1545 1545 1546 1546 1547 1548 1548 1548 1548 1548 1548 1547 1547 1546 1545 1546 1545 1545 1545 1545 1544 1544 1544 1544
1538 1538 1539 1539 1540 1541 1542 1544 1544 1545 1546 1546 1547 1548 1548 1549 1548 1548 1548 1548 1547 1546 1545 1545 1545 1545 1544 1544 1544 1544 1543 1543 1544
1538 1539 1539 1540 1541 1541 1543 1544 1545 1545 1546 1547 1547 1548 1548 1548 1548 1548 1548 1547 1547 1545 1545 1545 1544 1544 1544 1543 1543 1543 1542 1542 1542
1538 1538 1540 1541 1541 1542 1543 1544 1545 1546 1546 1546 1547 1548 1547 1546 1547 1547 1547 1546 1546 1544 1544 1544 1543 1542 1543 1542 1542 1542 1541 1540 1540
1538 1538 1540 1541 1542 1543 1544 1544 1545 1545 1546 1546 1546 1547 1546 1546 1546 1547 1546 1545 1544 1543 1542 1542 1541 1541 1540 1541 1540 1540 1539 1539 1539
1537 1539 1540 1540 1542 1543 1544 1544 1544 1544 1545 1545 1546 1546 1546 1544 1545 1544 1545 1544 1542 1541 1541 1540 1540 1539 1538 1539 1538 1538 1537 1536 1537
1537 1538 1540 1540 1541 1541 1542 1543 1543 1543 1544 1544 1545 1544 1544 1544 1543 1543 1543 1541 1540 1539 1538 1538 1538 1537 1536 1537 1536 1536 1534 1534 1534
1537 1538 1539 1540 1540 1540 1541 1541 1542 1543 1543 1542 1542 1543 1541 1542 1541 1540 1540 1540 1539 1537 1537 1536 1536 1535 1535 1534 1534 1533 1532 1531 1531
1534 1536 1537 1538 1540 1540 1540 1541 1541 1542 1542 1541 1540 1540 1539 1539 1539 1538 1537 1538 1537 1535 1535 1534 1535 1533 1534 1532 1532 1531 1530 1529 1528
1532 1533 1534 1536 1537 1539 1539 1539 1540 1540 1539 1539 1539 1538 1536 1536 1536 1535 1535 1535 1533 1534 1533 1532 1532 1531 1532 1530 1530 1528 1528 1527 1526
1529 1531 1532 1533 1534 1535 1537 1538 1538 1538 1538 1537 1536 1535 1534 1534 1533 1533 1532 1532 1531 1531 1531 1531 1531 1530 1530 1529 1527 1526 1525 1524 1523
1526 1528 1530 1533 1534 1534 1534 1535 1536 1536 1536 1534 1534 1534 1533 1532 1531 1530 1529 1530 1529 1529 1529 1529 1528 1528 1527 1526 1525 1523 1522 1521 1519
1523 1525 1528 1530 1531 1532 1533 1533 1533 1533 1533 1533 1532 1531 1531 1530 1529 1528 1528 1527 1527 1527 1527 1527 1526 1525 1524 1523 1522 1520 1518 1517 1516
1520 1523 1525 1526 1527 1529 1530 1530 1531 1531 1531 1531 1530 1529 1528 1527 1527 1527 1526 1525 1525 1525 1525 1524 1523 1522 1521 1520 1518 1516 1514 1513 1511
1518 1520 1521 1522 1523 1525 1526 1527 1528 1529 1529 1529 1528 1527 1526 1526 1525 1525 1525 1524 1524 1523 1522 1521 1521 1519 1517 1516 1514 1512 1510 1508 1506
1513 1516 1517 1519 1521 1522 1523 1524 1526 1526 1526 1527 1526 1524 1523 1523 1523 1523 1522 1521 1520 1519 1519 1518 1517 1516 1514 1512 1510 1508 1506 1504 1502
1509 1511 1513 1515 1517 1518 1520 1520 1522 1523 1523 1524 1523 1522 1523 1521 1520 1520 1519 1518 1517 1516 1516 1515 1514 1511 1510 1508 1505 1503 1501 1499 1498
1503 1507 1508 1511 1513 1515 1517 1518 1519 1520 1520 1520 1520 1520 1519 1518 1517 1516 1515 1514 1514 1513 1512 1511 1510 1507 1505 1503 1500 1498 1496 1494 1492
1498 1501 1504 1507 1509 1511 1513 1515 1516 1516 1517 1517 1516 1516 1517 1516 1515 1513 1512 1512 1511 1510 1508 1507 1505 1503 1500 1498 1495 1493 1490 1489 1487
1491 1495 1498 1502 1505 1508 1510 1511 1512 1513 1513 1513 1512 1512 1511 1511 1511 1508 1508 1508 1507 1506 1504 1502 1500 1497 1495 1492 1489 1487 1485 1483 1481
Wind_Speed
11 12 13 12 11 10 9 7 6 5 7 9 10 9 8 9 6 6 7 9 9 9 6 7 7 7 5 2 5 7 7 3 4
11 12 12 12 12 11 11 10 9 9 10 10 9 9 10 8 4 2 4 5 8 6 5 4 4 5 5 3 3 4 4 3 4
11 11 10 10 10 11 11 11 10 8 7 6 6 6 6 5 3 1 2 4 5 2 4 3 4 3 4 5 4 3 5 5 7
10 10 8 8 9 10 9 8 6 5 5 4 5 8 8 4 1 3 5 7 7 4 3 3 2 4 4 3 3 5 6 5 5
10 8 7 7 8 8 7 6 5 4 4 6 5 7 5 2 3 5 6 6 7 5 3 3 5 6 6 6 7 7 7 7 7
11 7 7 8 7 6 5 4 4 4 5 5 3 2 3 5 7 7 7 7 7 7 7 7 8 8 9 9 9 9 9 10 10
10 8 7 7 7 6 4 3 2 2 1 2 3 2 5 7 7 8 8 8 8 8 9 9 9 9 10 11 11 10 10 11 12
9 7 7 7 7 5 5 4 2 1 2 5 5 4 6 9 11 10 10 10 8 12 11 10 9 9 10 10 11 10 10 11 11
10 8 8 9 7 6 6 4 3 3 3 4 6 7 9 9 11 11 10 9 9 12 11 9 9 8 10 10 11 11 12 12 12
14 12 12 10 6 6 7 6 4 4 5 6 7 7 9 10 11 12 10 9 9 10 9 9 8 8 9 11 12 13 14 13 14
16 18 14 10 8 11 9 6 6 6 6 7 7 7 7 9 10 11 10 9 8 8 9 9 9 10 12 13 15 15 16 17 17
19 16 17 16 14 12 10 9 8 7 6 6 7 7 7 8 11 11 11 9 9 9 9 10 11 11 12 14 15 15 17 18 19
20 21 22 18 16 13 11 10 9 7 5 6 6 7 7 9 10 10 11 9 8 9 10 12 13 14 15 15 16 17 18 18 19
23 22 21 20 19 14 11 10 9 6 5 5 6 6 7 7 7 9 10 10 10 9 15 13 14 16 15 19 19 19 19 20 20
26 24 23 23 21 16 13 12 9 6 4 5 6 6 4 6 5 7 7 9 8 14 16 16 16 17 20 23 20 20 21 24 21
27 27 27 26 21 17 14 13 10 7 5 4 6 4 4 4 4 5 10 11 13 15 17 19 19 21 23 22 21 22 24 21 21
28 30 30 27 24 21 17 15 13 9 5 4 5 3 5 4 7 9 7 10 14 14 18 19 22 26 25 25 25 24 23 23 22
34 33 31 29 25 21 17 16 13 9 7 4 2 2 3 9 5 7 9 12 13 15 18 20 25 27 27 27 26 25 23 24 20
39 35 34 30 27 22 19 17 15 10 8 5 5 5 7 4 5 8 9 13 17 18 19 24 24 24 25 25 25 25 25 24 21
40 35 34 31 27 23 21 19 15 11 8 7 6 7 8 9 10 15 14 18 20 21 22 22 23 20 19 22 24 24 27 23 25
Wind_Direction
116 109 105 108 117 128 137 148 161 130 100 96 94 95 101 83 68 67 21 10 358 1 20 48 42 34 20 251 272 300 310 313 316
119 114 111 112 113 116 118 118 114 104 98 95 92 93 104 102 70 51 345 335 329 359 13 25 2 4 357 325 325 314 320 324 327
122 117 115 115 116 117 114 112 108 101 91 80 78 83 116 117 117 22 314 296 328 355 3 354 10 338 322 351 14 308 297 288 279
138 126 122 121 121 120 119 115 104 88 70 53 77 106 117 151 167 253 257 292 299 320 337 349 293 302 318 332 305 280 286 305 296
159 142 134 135 134 132 128 115 99 80 69 80 102 135 168 186 228 269 281 297 292 323 300 279 291 314 312 300 294 300 302 301 292
174 162 158 149 147 141 132 118 107 106 105 100 128 132 232 243 257 269 283 287 290 289 289 294 304 308 301 302 301 298 297 293 289
182 180 171 167 166 164 156 158 134 112 93 351 333 306 270 270 275 278 280 290 300 278 290 295 299 299 301 303 303 304 300 296 291
195 193 201 191 188 182 177 181 179 243 315 300 301 292 275 280 280 287 288 289 275 274 290 298 302 303 302 309 311 314 312 307 303
210 215 202 198 198 185 200 210 225 261 269 277 298 298 291 289 290 292 294 291 273 278 297 304 308 310 309 315 313 313 311 307 305
218 198 197 205 210 216 227 244 251 273 288 297 297 301 291 295 299 299 300 298 285 284 296 304 307 310 311 313 312 311 309 306 305
198 196 205 214 228 225 235 243 253 270 274 289 302 310 305 301 299 297 300 298 299 293 295 298 304 307 308 309 308 308 305 305 306
200 205 205 216 229 229 231 229 247 257 277 294 306 312 313 301 299 300 300 304 301 299 302 302 302 303 307 308 310 310 306 304 303
204 211 215 225 223 222 228 234 239 254 274 293 308 316 315 307 301 298 302 310 305 305 308 308 300 301 304 306 308 307 306 305 302
217 216 219 220 222 224 232 230 231 243 269 301 310 319 320 322 301 297 304 310 314 307 321 308 306 307 309 312 313 310 308 306 303
219 218 222 219 223 224 230 223 226 239 270 301 314 316 323 335 324 302 307 305 299 308 314 313 320 319 320 318 315 309 308 307 302
223 222 220 221 224 227 229 221 220 232 256 290 310 300 298 317 328 314 320 310 311 314 317 321 318 318 318 318 315 310 309 304 304
225 224 221 222 221 224 227 220 218 227 244 278 305 281 290 298 302 296 301 300 306 307 315 310 309 315 316 318 315 314 312 308 308
227 226 222 221 223 227 225 223 223 227 242 266 279 282 265 312 286 278 278 279 284 294 296 301 307 311 313 312 311 312 309 311 308
232 223 220 219 221 219 224 223 227 230 247 264 280 286 279 288 281 267 258 275 279 293 294 298 303 305 305 306 308 310 306 309 304
227 220 216 220 224 224 221 222 225 234 249 268 284 290 287 279 275 289 280 283 292 295 298 302 307 302 300 305 304 305 305 302 303